Regional Weather Roundup
Issued by NWS Cleveland, OH

Home | Current Version | Previous Version | Graphics & Text | Print | Product List | Glossary On
Versions: 1 2 3 4 5 6 7 8 9 10 11 12 13 14 15 16 17 18 19 20 21 22 23 24 25 26 27 28 29 30 31 32 33 34 35 36 37 38 39 40 41 42 43 44 45 46 47 48 49 50
516
ASUS41 KCLE 272202
RWRCLE
OHIO REGIONAL WEATHER ROUNDUP
NATIONAL WEATHER SERVICE CLEVELAND, OH
600 PM EDT THU JUL 27 2017

NOTE: "FAIR" INDICATES FEW OR NO CLOUDS BELOW 12,000 FEET WITH NO
SIGNIFICANT WEATHER AND/OR OBSTRUCTIONS TO VISIBILITY.

OHZ001>008-015>018-024>027-034-035-043-044-272300-
   NORTHWEST OHIO

CITY           SKY/WX    TMP DP  RH WIND       PRES   REMARKS
DEFIANCE       LGT RAIN  77  69  76 E8        29.87S
FINDLAY        CLOUDY    81  69  67 E9        29.86F
TOLEDO EXPRESS FAIR      85  65  51 NE7       29.86F
TOLEDO EXEC    FAIR      84  67  56 E8        29.88S
LIMA           LGT RAIN  73  72  96 CALM      29.88S
$$

OHZ009>014-019>023-028>033-038-089-272300-
   NORTHEAST OHIO

CITY           SKY/WX    TMP DP  RH WIND       PRES   REMARKS
CLE-HOPKINS    FAIR      83  66  56 N10       29.89F
CLE-LAKEFRONT  FAIR      79  68  69 NE12      29.87F
CUY CO. ARPT   MOSUNNY   82  64  54 N12       29.90F
LORAIN-ELYRIA  PTSUNNY   80  61  52 NE6       29.89F
ASHTABULA      FAIR      80  65  59 N7        29.90F
AKRON-CANTON   LGT RAIN  79  68  69 N8        29.89F
WOOSTER        PTSUNNY   78  69  73 SW7       29.90S
MANSFIELD      CLOUDY    74  72  93 N3        29.91S
YOUNGSTOWN     FAIR      83  62  49 NW5       29.89F
$$

OHZ042-051>053-060>062-070>072-077>081-272300-
  SOUTHWEST OHIO

CITY           SKY/WX    TMP DP  RH WIND       PRES   REMARKS
CINC-COVINGTON PTSUNNY   85  73  67 W13       29.88F HX  91
CINC-LUNKEN    PTSUNNY   84  71  65 W8        29.87F
HAMILTON       LGT RAIN  81  73  76 NW8       29.88F
DAYTON         LGT RAIN  80  72  76 N6        29.88F
WRIGHT-PAT AFB NOT AVBL
DAYTON GENERAL CLOUDY    76  72  87 SW10      29.87F
WILMINGTON     CLOUDY    75  74  96 W12       29.87F
$$

OHZ036-037-039>041-045>050-054>059-063>069-073>076-082>088-272300-
  CENTRAL AND SOUTHEAST OHIO

CITY           SKY/WX    TMP DP  RH WIND       PRES   REMARKS
COLUMBUS       LGT RAIN  72  72 100 E8        29.87F FOG
OSU AIRPORT    CLOUDY    73  73 100 NE7       29.87F FOG
BOLTON FIELD   DRIZZLE   75  73  94 W3        29.87F
RICKENBACK AFB CLOUDY    75  74  96 S5        29.86F
NEWARK         LGT RAIN  73  70  90 SE8       29.89F FOG
MARION         CLOUDY    79  67  66 CALM      29.88F
LANCASTER      CLOUDY    72  70  93 NE3       29.88F
ZANESVILLE     CLOUDY    73  69  87 S8        29.90F
NEW PHILLY     NOT AVBL
$$




USA.gov is the U.S. government's official web portal to all federal, state and local government web resources and services.